| time (UTC) | temp F | wind direction | speed knots | gust knots | rain 1hr in | rain 24hr in | rain mn in | humidity % | barometer mb |
| 20260506200421 | 72 | 300 | 7.0 | 7.8 | 0.00 | 0.00 | 0.00 | 60 | 1020.1 |
| 20260506195620 | 72 | 317 | 2.6 | 7.0 | 0.00 | 0.00 | 0.00 | 61 | 1020.4 |
| 20260506193620 | 70 | 302 | 5.2 | 9.6 | 0.00 | 0.00 | 0.00 | 62 | 1020.4 |
| 20260506191619 | 69 | 307 | 3.5 | 6.1 | 0.00 | 0.00 | 0.00 | 64 | 1020.6 |
| 20260506185725 | 68 | 346 | 2.6 | 7.0 | 0.00 | 0.00 | 0.00 | 65 | 1020.8 |
| 20260506183724 | 67 | 320 | 1.7 | 3.5 | 0.00 | 0.00 | 0.00 | 66 | 1020.9 |
| 20260506181620 | 66 | 319 | 3.5 | 6.1 | 0.00 | 0.00 | 0.00 | 67 | 1021.0 |
| 20260506175622 | 66 | 265 | 1.7 | 3.5 | 0.00 | 0.00 | 0.00 | 68 | 1021.1 |
| 20260506173616 | 64 | 259 | 3.5 | 3.5 | 0.00 | 0.00 | 0.00 | 69 | 1021.2 |
| 20260506171620 | 63 | 3 | 1.7 | 2.6 | 0.00 | 0.00 | 0.00 | 70 | 1021.4 |
| 20260506165827 | 62 | 348 | 0.9 | 2.6 | 0.00 | 0.00 | 0.00 | 72 | 1021.2 |
| 20260506163842 | 61 | 330 | 0.9 | 0.9 | 0.00 | 0.00 | 0.00 | 73 | 1021.4 |
| 20260506163014 | 61 | 280 | 0.9 | 1.7 | 0.00 | 0.00 | 0.00 | 74 | 1021.5 |
| 20260506160922 | 60 | 300 | 3.5 | 5.2 | 0.00 | 0.00 | 0.00 | 75 | 1021.5 |
| 20260506160319 | 60 | 300 | 0.0 | 0.9 | 0.00 | 0.00 | 0.00 | 75 | 1021.5 |
| 20260506154325 | 59 | 310 | 0.0 | 0.9 | 0.00 | 0.00 | 0.00 | 76 | 1021.3 |
| 20260506152331 | 59 | 352 | 0.9 | 1.7 | 0.00 | 0.00 | 0.00 | 76 | 1021.4 |
| 20260506150324 | 58 | 344 | 0.0 | 1.7 | 0.00 | 0.00 | 0.00 | 77 | 1021.2 |
| 20260506144324 | 58 | 344 | 0.9 | 0.9 | 0.00 | 0.00 | 0.00 | 78 | 1021.3 |
| 20260506143417 | 58 | 344 | 0.9 | 1.7 | 0.00 | 0.00 | 0.00 | 78 | 1021.3 |
| 20260506141417 | 57 | 343 | 0.0 | 0.9 | 0.00 | 0.00 | 0.00 | 78 | 1021.1 |
| 20260506135421 | 57 | 343 | 0.9 | 1.7 | 0.00 | 0.00 | 0.00 | 78 | 1020.9 |
| 20260506133424 | 57 | 0.0 | 0.0 | 0.00 | 0.00 | 0.00 | 78 | 1020.5 | |
| 20260506131438 | 57 | 0.0 | 0.0 | 0.00 | 0.00 | 0.00 | 78 | 1020.7 | |
| 20260506125218 | 57 | 322 | 0.9 | 0.9 | 0.00 | 0.00 | 0.00 | 78 | 1020.4 |
| 20260506123240 | 57 | 0.0 | 0.0 | 0.00 | 0.00 | 0.00 | 78 | 1020.1 | |
| 20260506121220 | 57 | 321 | 0.0 | 0.9 | 0.00 | 0.00 | 0.00 | 78 | 1020.2 |
| 20260506115221 | 57 | 0.0 | 0.0 | 0.00 | 0.00 | 0.00 | 77 | 1020.2 | |
| 20260506113240 | 57 | 336 | 0.9 | 1.7 | 0.00 | 0.00 | 0.00 | 78 | 1019.9 |
| 20260506112845 | 57 | 0.0 | 0.0 | 0.00 | 0.00 | 0.00 | 78 | 1020.0 | |
| 20260506111725 | 57 | 0.0 | 0.0 | 0.00 | 0.00 | 0.00 | 78 | 1019.9 | |
| 20260506105725 | 57 | 0.0 | 0.0 | 0.00 | 0.00 | 0.00 | 78 | 1019.7 | |
| 20260506103722 | 57 | 0.0 | 0.0 | 0.00 | 0.00 | 0.00 | 78 | 1019.6 | |
| 20260506101722 | 57 | 0.0 | 0.0 | 0.00 | 0.00 | 0.00 | 77 | 1019.7 | |
| 20260506095721 | 57 | 0.0 | 0.0 | 0.00 | 0.00 | 0.00 | 77 | 1019.7 | |
| 20260506094817 | 57 | 336 | 0.0 | 0.9 | 0.00 | 0.00 | 0.00 | 77 | 1019.6 |
| 20260506092824 | 57 | 0.0 | 0.0 | 0.00 | 0.00 | 0.00 | 76 | 1019.6 | |
| 20260506091907 | 58 | 0.0 | 0.0 | 0.00 | 0.00 | 0.00 | 76 | 1019.5 | |
| 20260506090727 | 0 | 0.0 | 0.0 | 0.00 | 0.00 | 0.00 | 1019.6 | ||
| 20260506090025 | 58 | 336 | 0.9 | 1.7 | 0.00 | 0.00 | 0.00 | 76 | 1020.0 |
| 20260506084845 | 58 | 0.0 | 0.0 | 0.00 | 0.00 | 0.00 | 75 | 1019.5 | |
| 20260506083825 | 58 | 336 | 0.0 | 0.9 | 0.00 | 0.00 | 0.00 | 75 | 1019.5 |
| 20260506083326 | 58 | 336 | 0.0 | 0.9 | 0.00 | 0.00 | 0.00 | 75 | 1019.6 |
| 20260506081327 | 58 | 0.0 | 0.0 | 0.00 | 0.00 | 0.00 | 75 | 1019.8 | |
| 20260506073345 | 58 | 335 | 1.7 | 2.6 | 0.00 | 0.00 | 0.00 | 75 | 1019.6 |
| 20260506071204 | 59 | 0.0 | 0.0 | 0.00 | 0.00 | 0.00 | 74 | 1019.1 | |
| 20260506070127 | 59 | 304 | 0.0 | 0.9 | 0.00 | 0.00 | 0.00 | 74 | 1019.3 |
| 20260506062309 | 59 | 308 | 2.6 | 6.1 | 0.00 | 0.00 | 0.00 | 74 | 1019.2 |
| 20260506060225 | 59 | 312 | 0.9 | 3.5 | 0.00 | 0.00 | 0.00 | 74 | 1019.0 |
| 20260506050321 | 59 | 316 | 2.6 | 5.2 | 0.00 | 0.00 | 0.00 | 73 | 1018.5 |
| 20260506044321 | 60 | 298 | 3.5 | 5.2 | 0.00 | 0.00 | 0.00 | 72 | 1018.0 |
| 20260506043126 | 60 | 307 | 5.2 | 9.6 | 0.00 | 0.00 | 0.00 | 72 | 1018.3 |
| 20260506041121 | 60 | 323 | 1.7 | 2.6 | 0.00 | 0.00 | 0.00 | 72 | 1018.1 |
| 20260506040118 | 60 | 317 | 1.7 | 7.0 | 0.00 | 0.00 | 0.00 | 72 | 1017.9 |
| 20260506034120 | 60 | 309 | 2.6 | 3.5 | 0.00 | 0.00 | 0.00 | 71 | 1017.5 |
| 20260506032116 | 60 | 299 | 3.5 | 7.0 | 0.00 | 0.00 | 0.00 | 71 | 1017.0 |
| 20260506031025 | 61 | 332 | 3.5 | 8.7 | 0.00 | 0.00 | 0.00 | 70 | 1017.0 |
| 20260506025029 | 61 | 310 | 5.2 | 11.3 | 0.00 | 0.00 | 0.00 | 70 | 1017.0 |
| 20260506023022 | 61 | 330 | 3.5 | 6.1 | 0.00 | 0.00 | 0.00 | 69 | 1016.9 |
| 20260506022026 | 62 | 330 | 0.9 | 0.9 | 0.00 | 0.00 | 0.00 | 69 | 1016.5 |
| 20260506020820 | 62 | 299 | 3.5 | 6.1 | 0.00 | 0.00 | 0.00 | 69 | 1016.7 |
| 20260506014823 | 62 | 323 | 2.6 | 2.6 | 0.00 | 0.00 | 0.00 | 68 | 1016.4 |
| 20260506014030 | 62 | 301 | 2.6 | 5.2 | 0.00 | 0.00 | 0.00 | 68 | 1016.5 |
| 20260506012020 | 62 | 319 | 1.7 | 5.2 | 0.00 | 0.00 | 0.00 | 68 | 1016.5 |
| 20260506010036 | 63 | 303 | 5.2 | 6.1 | 0.00 | 0.00 | 0.00 | 67 | 1016.5 |
| 20260506004021 | 63 | 292 | 4.3 | 6.1 | 0.00 | 0.00 | 0.00 | 67 | 1016.4 |
| 20260506003126 | 63 | 313 | 3.5 | 5.2 | 0.00 | 0.00 | 0.00 | 66 | 1016.5 |
| 20260506001141 | 64 | 284 | 5.2 | 7.8 | 0.00 | 0.00 | 0.00 | 66 | 1016.1 |
| 20260505235638 | 64 | 315 | 4.3 | 8.7 | 0.00 | 0.00 | 0.00 | 66 | 1016.1 |
| 20260505233729 | 65 | 285 | 6.1 | 8.7 | 0.00 | 0.00 | 0.00 | 65 | 1016.1 |
| 20260505231627 | 65 | 312 | 2.6 | 7.8 | 0.00 | 0.00 | 0.00 | 66 | 1016.0 |
| 20260505225629 | 65 | 302 | 2.6 | 6.1 | 0.00 | 0.00 | 0.00 | 66 | 1016.2 |
| 20260505223645 | 65 | 347 | 0.9 | 1.7 | 0.00 | 0.00 | 0.00 | 65 | 1016.2 |
| 20260505221621 | 65 | 350 | 2.6 | 5.2 | 0.00 | 0.00 | 0.00 | 66 | 1016.3 |
| 20260505220646 | 65 | 307 | 3.5 | 6.1 | 0.00 | 0.00 | 0.00 | 66 | 1016.4 |
| 20260505214640 | 65 | 315 | 1.7 | 5.2 | 0.00 | 0.00 | 0.00 | 66 | 1016.6 |
| 20260505213827 | 65 | 308 | 2.6 | 6.1 | 0.00 | 0.00 | 0.00 | 66 | 1016.7 |
| 20260505211824 | 64 | 307 | 5.2 | 8.7 | 0.00 | 0.00 | 0.00 | 67 | 1016.7 |
| 20260505205842 | 64 | 285 | 2.6 | 5.2 | 0.00 | 0.00 | 0.00 | 67 | 1016.6 |
| 20260505204846 | 64 | 323 | 2.6 | 3.5 | 0.00 | 0.00 | 0.00 | 68 | 1016.6 |
| 20260505204229 | 64 | 332 | 3.5 | 5.2 | 0.00 | 0.00 | 0.00 | 68 | 1016.5 |
| 20260505202624 | 64 | 327 | 0.9 | 0.9 | 0.00 | 0.00 | 0.00 | 70 | 1016.8 |